Weather History for Grand Marais Airport, MN

Change the Weather History Date:

Monday, April 8, 2013

  Actual Average Record
Temperature  
Mean Temperature 32 °F -  
Max Temperature 37 °F 40 °F 57 °F (1997)
Min Temperature 28 °F 23 °F 5 °F (1997)
Degree Days  
Heating Degree Days 32    
Moisture  
Dew Point 26 °F    
Average Humidity 81    
Maximum Humidity 93    
Minimum Humidity 70    
Precipitation  
Precipitation 0.08 in - - ()
Sea Level Pressure  
Sea Level Pressure 29.87 in    
Wind  
Wind Speed 4 mph (NNE)    
Max Wind Speed 8 mph    
Max Gust Speed -    
Visibility 8 miles    
Events Snow    
Averages and records for this station are not official NWS values.
T = Trace of Precipitation, MM = Missing Value Source: NWS Daily Summary

Daily Weather History Graph

Daily Weather History Graph

Search for Another Location

Airport:

Trip Planner

Search our weather history database for the weather conditions in past years. The results will help you decide how hot, cold, wet, or windy it might be!

Date:

Astronomy

Apr. 08, 2013 Rise Set
Actual Time 6:25 AM CDT 7:41 PM CDT
Civil Twilight 5:53 AM CDT 8:13 PM CDT
Nautical Twilight 5:15 AM CDT 8:52 PM CDT
Astronomical Twilight 4:34 AM CDT 9:34 PM CDT
Moon 5:22 AM CDT (4/8) 6:12 PM CDT (4/8)
Length of Visible Light 14h 20m
Length of Day
13h 16m
Waning Crescent, 3% of the Moon is Illuminated
Apr 8
Waning Crescent
Apr 10
New
Apr 18
First Quarter
Apr 25
Full
May 2
Last Quarter

Hourly Weather History & Observations

Time (CDT) Temp. Windchill Dew Point Humidity Pressure Visibility Wind Dir Wind Speed Gust Speed Precip Events Conditions
12:14 AM 28.4 °F - 21.2 °F 74% 29.86 in 7.0 mi Calm Calm - N/A Snow Light Snow
12:33 AM 28.4 °F 24.6 °F 21.2 °F 74% 29.86 in 4.0 mi ENE 3.5 mph - N/A Snow Light Snow
12:54 AM 28.4 °F 24.6 °F 21.2 °F 74% 29.85 in 4.0 mi ENE 3.5 mph - N/A Snow Light Snow
1:13 AM 28.4 °F 23.3 °F 21.2 °F 74% 29.84 in 4.0 mi NE 4.6 mph - N/A   Overcast
1:33 AM 28.4 °F 24.6 °F 23.0 °F 80% 29.85 in 5.0 mi NNE 3.5 mph - N/A Snow Light Snow
1:54 AM 28.4 °F 24.6 °F 23.0 °F 80% 29.85 in 4.0 mi NE 3.5 mph - N/A Snow Light Snow
2:14 AM 28.4 °F 23.3 °F 23.0 °F 80% 29.84 in 3.0 mi ENE 4.6 mph - N/A Snow Light Snow
2:33 AM 28.4 °F 23.3 °F 23.0 °F 80% 29.84 in 2.5 mi NE 4.6 mph - N/A Snow Light Snow
2:53 AM 28.4 °F 23.3 °F 24.8 °F 86% 29.84 in 1.5 mi ENE 4.6 mph - N/A Snow Light Snow
3:13 AM 28.4 °F 24.6 °F 24.8 °F 86% 29.83 in 2.0 mi NE 3.5 mph - N/A   Overcast
3:34 AM 28.4 °F 24.6 °F 24.8 °F 86% 29.82 in 2.0 mi NE 3.5 mph - 0.01 in Snow Light Snow
3:54 AM 28.4 °F 24.6 °F 24.8 °F 86% 29.82 in 2.0 mi NE 3.5 mph - 0.02 in Snow Light Snow
4:14 AM 28.4 °F 24.6 °F 24.8 °F 86% 29.82 in 2.0 mi ENE 3.5 mph - N/A Snow Light Snow
4:33 AM 28.4 °F 24.6 °F 24.8 °F 86% 29.82 in 1.8 mi ENE 3.5 mph - 0.01 in Snow Light Snow
4:53 AM 28.4 °F - 24.8 °F 86% 29.82 in 1.5 mi Calm Calm - 0.02 in   Overcast
5:14 AM 28.4 °F 24.6 °F 24.8 °F 86% 29.82 in 1.5 mi NE 3.5 mph - N/A Snow Light Snow
5:33 AM 28.4 °F 24.6 °F 24.8 °F 86% 29.81 in 1.5 mi NE 3.5 mph - 0.01 in Snow Light Snow
5:53 AM 28.4 °F - 24.8 °F 86% 29.81 in 2.0 mi Calm Calm - 0.02 in Snow Light Snow
6:14 AM 28.4 °F 23.3 °F 24.8 °F 86% 29.81 in 1.5 mi NE 4.6 mph - N/A Snow Light Snow
6:33 AM 28.4 °F 23.3 °F 24.8 °F 86% 29.81 in 2.5 mi NNE 4.6 mph - 0.01 in Snow Light Snow
6:53 AM 28.4 °F 23.3 °F 24.8 °F 86% 29.81 in 1.5 mi NNE 4.6 mph - 0.01 in Snow Light Snow
7:13 AM 28.4 °F 23.3 °F 24.8 °F 86% 29.82 in 2.5 mi NNE 4.6 mph - 0.01 in Snow Light Snow
7:34 AM 28.4 °F 23.3 °F 24.8 °F 86% 29.82 in 10.0 mi NE 4.6 mph - 0.01 in Snow Light Snow
7:54 AM 28.4 °F 21.2 °F 24.8 °F 86% 29.82 in 10.0 mi NNE 6.9 mph - 0.01 in   Overcast
8:14 AM 28.4 °F 22.2 °F 24.8 °F 86% 29.82 in 10.0 mi NNE 5.8 mph - N/A Snow Light Snow
8:34 AM 28.4 °F 21.2 °F 24.8 °F 86% 29.82 in 10.0 mi North 6.9 mph - N/A   Overcast
8:53 AM 30.2 °F 23.4 °F 26.6 °F 86% 29.82 in 10.0 mi NNE 6.9 mph - N/A   Overcast
9:14 AM 30.2 °F 23.4 °F 26.6 °F 86% 29.81 in 10.0 mi NNE 6.9 mph - N/A   Overcast
9:33 AM 30.2 °F 23.4 °F 26.6 °F 86% 29.81 in 10.0 mi NNE 6.9 mph - N/A   Overcast
9:54 AM 30.2 °F 23.4 °F 26.6 °F 86% 29.80 in 10.0 mi NNE 6.9 mph - N/A   Overcast
10:13 AM 30.2 °F 24.3 °F 26.6 °F 86% 29.81 in 10.0 mi North 5.8 mph - N/A   Overcast
10:34 AM 32.0 °F 26.4 °F 26.6 °F 80% 29.82 in 10.0 mi NE 5.8 mph - N/A Snow Light Snow
10:53 AM 32.0 °F 26.4 °F 26.6 °F 80% 29.82 in 10.0 mi NNE 5.8 mph - N/A Snow Light Snow
11:14 AM 32.0 °F 26.4 °F 26.6 °F 80% 29.83 in 10.0 mi North 5.8 mph - N/A   Overcast
11:33 AM 33.8 °F 28.6 °F 26.6 °F 75% 29.83 in 10.0 mi NNE 5.8 mph - N/A   Overcast
11:53 AM 33.8 °F 28.6 °F 26.6 °F 75% 29.83 in 10.0 mi NE 5.8 mph - N/A   Overcast
12:14 PM 33.8 °F 27.7 °F 26.6 °F 75% 29.83 in 10.0 mi NNE 6.9 mph - N/A   Overcast
12:33 PM 33.8 °F 27.7 °F 26.6 °F 75% 29.83 in 10.0 mi North 6.9 mph - N/A   Overcast
12:53 PM 33.8 °F 27.7 °F 26.6 °F 75% 29.83 in 10.0 mi North 6.9 mph - N/A   Overcast
1:13 PM 33.8 °F 29.6 °F 28.4 °F 81% 29.84 in 10.0 mi North 4.6 mph - N/A   Overcast
1:33 PM 35.6 °F 30.7 °F 28.4 °F 75% 29.83 in 10.0 mi North 5.8 mph - N/A   Overcast
1:53 PM 35.6 °F 30.7 °F 28.4 °F 75% 29.83 in 10.0 mi North 5.8 mph - N/A   Mostly Cloudy
2:13 PM 37.4 °F - 28.4 °F 70% 29.83 in 10.0 mi Calm Calm - N/A   Mostly Cloudy
2:34 PM 37.4 °F 34.9 °F 28.4 °F 70% 29.84 in 10.0 mi North 3.5 mph - N/A   Mostly Cloudy
2:53 PM 37.4 °F 34.9 °F 28.4 °F 70% 29.84 in 10.0 mi NNE 3.5 mph - N/A   Overcast
3:13 PM 35.6 °F 31.7 °F 28.4 °F 75% 29.85 in 10.0 mi NNW 4.6 mph - N/A   Overcast
3:34 PM 35.6 °F 31.7 °F 28.4 °F 75% 29.86 in 10.0 mi North 4.6 mph - N/A   Overcast
3:53 PM 35.6 °F 29.2 °F 28.4 °F 75% 29.86 in 10.0 mi NNW 8.1 mph - N/A   Overcast
4:14 PM 35.6 °F 31.7 °F 28.4 °F 75% 29.86 in 10.0 mi NW 4.6 mph - N/A   Overcast
4:33 PM 35.6 °F 30.7 °F 28.4 °F 75% 29.86 in 10.0 mi North 5.8 mph - N/A   Overcast
4:53 PM 35.6 °F 31.7 °F 28.4 °F 75% 29.87 in 10.0 mi North 4.6 mph - N/A   Overcast
5:14 PM 35.6 °F 32.8 °F 28.4 °F 75% 29.88 in 10.0 mi North 3.5 mph - N/A   Overcast
5:33 PM 35.6 °F 30.7 °F 28.4 °F 75% 29.89 in 10.0 mi North 5.8 mph - N/A   Overcast
5:53 PM 35.6 °F 30.7 °F 28.4 °F 75% 29.90 in 10.0 mi NNW 5.8 mph - N/A   Overcast
6:14 PM 35.6 °F 31.7 °F 28.4 °F 75% 29.91 in 10.0 mi NNW 4.6 mph - N/A   Overcast
6:33 PM 33.8 °F 28.6 °F 28.4 °F 81% 29.92 in 10.0 mi NNW 5.8 mph - N/A   Overcast
6:54 PM 33.8 °F 27.7 °F 28.4 °F 81% 29.93 in 10.0 mi NNW 6.9 mph - N/A   Overcast
7:13 PM 33.8 °F 30.8 °F 28.4 °F 81% 29.94 in 10.0 mi NNW 3.5 mph - N/A   Overcast
7:34 PM 33.8 °F - 28.4 °F 81% 29.96 in 10.0 mi Calm Calm - N/A   Overcast
7:53 PM 33.8 °F - 28.4 °F 81% 29.95 in 10.0 mi Calm Calm - N/A   Overcast
8:13 PM 33.8 °F 30.8 °F 28.4 °F 81% 29.95 in 10.0 mi NNW 3.5 mph - N/A   Overcast
8:34 PM 33.8 °F - 28.4 °F 81% 29.98 in 10.0 mi Calm Calm - N/A   Overcast
8:53 PM 33.8 °F - 28.4 °F 81% 29.98 in 10.0 mi Calm Calm - N/A   Overcast
9:14 PM 33.8 °F - 28.4 °F 81% 29.99 in 10.0 mi Calm Calm - N/A   Overcast
9:33 PM 33.8 °F - 28.4 °F 81% 30.00 in 10.0 mi Calm Calm - N/A   Overcast
9:53 PM 33.8 °F - 28.4 °F 81% 30.01 in 10.0 mi Calm Calm - N/A   Overcast
10:14 PM 33.8 °F - 28.4 °F 81% 30.00 in 10.0 mi Calm Calm - N/A   Overcast
10:33 PM 33.8 °F - 28.4 °F 81% 29.99 in 10.0 mi Calm Calm - N/A   Overcast
10:53 PM 33.8 °F - 28.4 °F 81% 30.00 in 10.0 mi Calm Calm - N/A   Overcast
11:14 PM 32.0 °F - 28.4 °F 87% 30.00 in 10.0 mi Calm Calm - N/A   Overcast
11:34 PM 30.2 °F - 28.4 °F 93% 30.00 in 10.0 mi Calm Calm - N/A   Overcast
11:53 PM 32.0 °F - 28.4 °F 87% 30.00 in 10.0 mi Calm Calm - N/A   Overcast